RH
65 63 60 60 65 68 68 71 74 74 75 74 72 73 65 49 41 41 40 41 41 39 37 34 31 31 32 33 33 32 34 38 39 39 38 34 30 29 29 29 30 30 31 32 31 31 31 30 29 30 31 34 38 41 43 43 42 39 37 38 39 40 41 40 39 39 40 41 42 43 45 47 49 50 51 52 51 50 49 49 49 50 51 51 52
71 66 63 64 70 73 73 77 79 76 75 74 76 71 52 38 38 40 39 40 38 34 33 32 32 33 34 33 32 33 38 40 39 38 36 34 31 29 29 29 31 31 31 31 31 31 31 30 30 30 32 38 44 46 46 44 42 39 38 39 41 42 43 42 41 41 41 42 43 45 46 47 49 50 52 52 52 51 50 48 48 50 52 54 56
75 74 73 73 79 80 79 84 83 75 74 78 79 62 39 35 39 38 39 37 33 32 31 32 33 35 35 33 33 37 40 40 38 37 37 34 31 31 30 30 30 30 30 31 31 32 32 31 30 31 35 41 46 47 45 44 43 43 42 42 43 45 45 43 42 42 41 42 43 45 47 48 49 50 51 52 52 52 51 50 49 51 54 56 58
70 78 82 85 90 87 84 88 82 72 73 80 76 50 32 36 38 36 36 32 31 31 31 33 34 36 34 32 36 40 41 39 37 37 37 34 32 33 32 31 30 29 30 31 32 33 34 33 32 33 37 42 44 44 43 44 46 48 47 45 45 46 45 43 42 41 41 41 43 45 46 48 50 51 51 52 53 53 53 53 53 54 54 55 56
61 71 81 89 92 88 87 85 76 69 73 81 70 41 30 34 35 34 32 29 31 31 31 34 36 35 32 34 39 42 41 40 40 39 37 35 34 35 35 34 32 30 31 32 33 35 36 35 34 35 39 41 42 41 42 44 47 50 50 47 46 45 44 43 42 41 40 41 43 46 48 50 52 52 52 52 53 53 54 54 53 54 52 51 51
60 66 75 85 86 82 80 75 70 69 74 81 64 35 29 33 32 32 29 29 31 31 33 35 34 32 32 36 41 43 44 44 42 39 37 36 35 36 37 36 34 32 32 33 35 37 38 37 37 39 40 41 40 40 41 42 45 49 51 48 45 44 44 44 43 42 41 42 45 49 51 53 53 53 53 53 54 54 55 54 52 51 49 48 47
63 69 76 83 80 76 74 70 72 73 76 77 56 32 29 30 29 30 28 30 31 31 34 34 33 32 33 38 43 46 49 47 44 40 37 37 36 36 37 36 34 32 32 35 37 38 39 40 41 41 41 40 39 39 39 40 42 47 51 50 46 45 45 45 45 43 43 45 49 53 55 56 56 56 56 56 55 55 55 55 53 49 46 44 44
71 81 88 88 81 80 80 76 76 74 75 73 50 30 29 29 29 29 29 31 31 32 34 33 32 32 33 39 46 49 50 48 45 41 38 38 38 38 37 35 34 33 34 36 38 39 39 40 41 40 39 38 38 38 39 41 44 47 50 50 48 47 47 46 46 45 45 47 50 54 57 58 59 60 59 56 54 53 53 54 54 51 47 44 42
75 83 89 90 89 89 85 80 76 73 76 70 45 29 29 29 29 30 31 31 31 32 33 34 33 32 35 42 48 50 50 48 44 42 42 41 41 40 38 39 39 37 37 38 39 39 38 39 38 37 36 37 37 38 40 44 47 50 52 52 51 51 51 49 48 47 47 48 51 54 56 57 59 59 57 55 52 50 48 47 48 47 46 45 43
77 73 72 78 82 82 78 76 74 73 76 65 40 30 30 29 30 31 31 30 30 32 33 34 34 31 36 44 49 51 51 48 45 46 47 46 46 45 44 47 45 42 40 39 39 38 37 37 35 35 36 37 39 40 44 48 51 54 56 56 56 56 55 52 51 51 50 51 52 54 56 57 58 58 57 55 53 50 47 45 43 42 42 42 41
78 69 67 71 74 75 70 71 75 76 78 61 35 30 31 29 31 30 30 30 29 32 33 35 33 31 37 45 49 53 53 49 49 52 52 50 51 51 51 52 49 45 41 38 37 37 36 36 34 36 38 39 42 43 46 50 53 57 59 60 60 59 58 56 55 55 54 54 56 58 61 62 62 62 60 57 55 53 50 47 44 41 40 41 40
74 69 72 75 76 76 70 72 83 84 82 65 36 30 33 30 31 31 30 31 30 31 33 34 33 31 36 44 50 55 54 51 52 55 55 54 55 55 54 54 48 43 39 37 37 36 36 35 36 38 40 41 43 45 48 52 55 60 62 62 62 61 61 59 58 58 57 57 59 61 63 64 64 62 60 57 53 52 50 49 46 42 41 41 40
72 70 75 79 79 81 78 82 93 91 88 76 42 29 33 30 29 32 32 32 30 31 34 34 34 32 34 42 51 56 55 52 53 54 55 56 57 56 54 50 45 40 38 37 37 37 37 37 38 39 40 41 43 45 50 55 59 63 65 65 63 63 62 60 60 60 58 57 58 60 62 61 61 58 56 54 52 53 53 51 49 46 44 42 40
78 77 79 83 84 87 90 94 98 92 93 87 51 30 34 31 29 34 35 35 32 31 34 34 34 32 33 41 50 56 56 53 53 54 55 56 56 54 51 46 42 39 38 38 38 38 38 38 39 40 41 42 43 47 52 57 63 66 67 66 64 63 62 61 62 61 59 58 58 60 60 59 58 56 55 54 55 57 57 54 52 51 50 46 42
85 83 80 83 87 92 97 100 100 93 95 94 61 33 32 31 29 34 36 35 33 31 33 34 34 33 33 39 47 53 55 54 54 54 54 54 54 52 48 44 42 40 39 40 40 39 39 40 41 42 43 44 45 48 53 60 65 67 68 66 64 63 62 62 63 63 61 59 59 60 59 57 57 56 56 56 58 59 59 59 59 61 62 58 50
83 80 73 76 86 94 97 100 101 96 97 96 66 35 31 32 29 33 35 35 34 32 33 35 35 34 33 36 41 48 54 55 55 55 54 53 52 49 46 44 43 41 40 41 41 41 41 42 43 44 44 45 46 48 54 61 65 67 66 65 64 63 63 64 65 63 61 60 59 57 56 56 56 56 57 59 61 62 63 63 63 64 66 64 57
79 72 66 68 78 91 98 98 98 99 100 97 72 40 31 31 29 32 34 34 35 34 34 36 36 35 33 34 38 45 51 54 55 55 54 52 50 48 45 44 43 42 41 41 42 43 43 44 44 44 44 44 46 49 53 59 64 65 64 63 64 64 65 66 66 63 61 59 57 55 55 56 56 56 58 61 63 64 63 63 62 62 60 59 56
74 69 67 66 73 86 97 97 93 95 101 102 83 51 33 31 31 32 33 33 35 34 34 36 36 35 33 32 35 39 45 50 52 53 53 51 50 47 45 43 43 42 42 41 42 43 44 45 44 44 44 44 46 48 52 57 61 63 63 62 64 66 68 68 65 62 61 59 56 53 55 56 56 57 59 61 63 62 60 60 59 59 56 53 53
72 71 68 67 70 79 94 99 89 89 101 105 91 62 37 31 31 31 32 33 33 33 34 35 36 35 34 33 34 36 39 43 46 48 50 49 48 47 45 43 43 42 41 41 41 42 43 43 43 43 43 43 45 48 51 56 60 62 63 63 66 69 70 68 63 61 61 58 55 55 57 58 58 59 59 59 60 59 59 58 58 58 54 52 51
72 69 66 69 71 72 86 97 87 85 101 107 96 71 42 32 33 32 32 32 31 32 32 34 35 35 36 36 35 36 37 39 40 42 43 44 44 44 43 43 42 41 40 40 40 41 41 41 41 41 41 42 44 48 52 56 60 63 63 65 68 71 71 67 62 61 60 57 56 58 60 61 60 59 58 58 57 58 58 57 57 57 54 51 50
73 69 68 72 76 70 75 89 86 84 97 106 101 80 50 35 32 31 32 32 31 31 30 32 34 35 37 38 39 40 39 38 38 37 37 37 38 39 39 39 40 39 38 39 39 39 39 40 41 41 41 42 45 49 53 57 62 65 66 67 71 72 71 67 63 61 59 57 58 61 62 61 60 58 57 57 56 58 58 56 56 54 51 49 49
72 74 74 74 79 74 68 78 83 81 89 100 105 94 69 51 47 46 44 38 33 31 30 31 32 34 37 38 39 40 40 39 38 36 34 33 33 33 34 34 35 35 36 37 38 39 40 41 42 42 43 44 46 49 52 58 67 71 71 72 73 74 72 68 63 60 57 57 60 62 61 60 58 57 57 58 58 58 57 57 55 52 49 49 52
72 78 79 74 77 75 67 70 76 79 84 91 101 103 89 78 76 71 60 45 36 33 31 31 32 33 36 37 37 39 39 39 37 35 34 32 32 32 32 33 33 35 36 38 40 42 43 43 44 44 46 46 47 49 52 60 71 76 76 77 77 77 74 69 64 60 57 58 61 62 60 59 58 59 59 59 59 59 59 60 56 51 50 52 54
73 77 78 75 75 73 68 67 69 76 83 86 95 103 96 86 81 75 64 51 40 35 33 32 33 33 34 35 35 35 36 36 35 34 34 33 34 34 34 35 36 37 40 41 43 44 44 45 45 47 49 49 49 50 53 63 75 80 81 82 82 79 75 70 65 60 58 60 62 62 60 59 60 61 61 61 61 62 64 63 57 52 53 55 55
74 77 78 74 71 66 63 62 64 74 84 86 93 102 95 81 72 71 69 57 43 36 35 34 34 34 34 34 35 35 36 35 34 34 34 34 35 35 36 37 38 40 42 43 44 45 45 45 46 48 50 51 51 52 57 68 81 86 86 86 84 79 74 70 65 61 60 62 62 62 61 61 63 64 63 63 65 68 69 65 59 56 57 59 59
72 78 78 70 64 62 62 62 64 74 86 91 97 102 93 78 74 77 71 54 41 39 39 38 38 38 37 36 37 37 38 39 40 42 42 42 42 41 41 42 43 43 43 43 44 44 44 45 46 48 50 52 53 54 60 74 86 90 90 87 83 78 73 70 65 62 62 61 61 62 62 63 65 66 66 67 71 74 73 68 62 61 63 64 62
69 75 73 66 65 64 65 67 68 76 89 93 97 99 91 83 82 78 63 47 42 42 41 40 41 42 44 45 48 53 57 60 60 60 58 57 55 53 52 51 50 48 46 45 45 44 44 45 46 48 50 52 54 55 63 77 87 89 89 86 81 76 72 68 65 63 62 61 62 63 62 62 65 67 69 72 77 79 76 70 66 66 68 68 63
68 69 65 71 77 70 68 75 79 84 91 92 96 98 93 89 83 66 50 44 44 44 43 46 54 61 65 69 71 74 74 70 65 61 58 57 55 55 54 52 51 49 47 46 45 45 44 44 46 48 49 51 53 56 65 77 84 86 85 82 79 75 70 67 65 65 64 63 62 60 60 62 65 69 72 76 80 81 77 73 72 72 71 68 61
64 61 64 83 90 77 77 89 90 87 89 92 98 100 97 92 75 54 47 52 57 59 60 67 78 81 76 70 66 63 59 55 52 49 48 48 48 48 48 48 48 48 48 48 47 46 46 46 46 47 49 51 52 56 65 75 81 83 82 79 77 74 70 67 67 66 63 60 58 59 62 65 68 71 75 79 82 81 76 74 76 75 71 65 59
57 57 70 88 86 72 77 90 86 81 86 95 102 103 103 94 71 54 57 66 74 82 86 89 93 90 82 75 67 61 56 52 50 49 50 49 48 48 48 48 48 48 49 50 51 51 51 49 48 47 48 50 52 57 65 74 80 81 80 78 77 73 70 69 68 64 59 58 59 61 64 67 71 74 78 81 82 78 74 74 76 74 68 62 58
52 59 71 81 81 75 77 81 78 80 92 101 106 107 105 95 76 65 66 73 85 97 98 95 93 91 89 86 78 69 61 54 50 53 59 62 59 56 54 54 54 52 50 49 49 51 52 50 49 48 48 50 53 57 65 74 79 80 79 79 76 73 71 69 65 61 59 59 59 61 65 68 72 77 80 81 78 74 72 73 74 71 64 59 56
55 62 67 77 84 83 81 81 80 87 96 101 105 105 104 101 89 77 75 83 96 103 100 97 94 90 84 77 68 61 54 49 49 51 58 64 62 57 53 53 54 53 51 49 48 48 49 50 50 49 49 50 53 58 67 76 79 79 79 78 74 72 72 68 64 62 60 58 58 61 67 71 75 79 79 78 75 72 72 73 73 68 62 59 56
61 60 65 82 88 79 79 84 86 89 91 95 101 103 105 105 94 82 85 96 103 103 100 100 98 89 78 66 56 50 46 47 48 49 52 56 56 52 49 49 50 51 50 50 49 49 49 49 50 50 49 50 53 61 70 77 80 81 79 75 72 73 72 68 66 64 60 59 61 65 70 76 79 80 78 76 75 73 73 73 71 67 62 59 56
59 59 72 92 90 75 74 80 81 80 79 85 98 105 108 105 92 85 93 101 102 101 100 99 97 90 79 65 52 47 46 47 47 47 49 50 50 49 48 49 51 51 51 50 50 50 50 49 49 49 50 51 56 65 74 81 84 82 77 74 75 75 71 68 67 64 61 63 65 69 74 79 82 82 79 77 77 76 75 74 70 66 62 60 57
58 67 88 101 94 85 85 84 82 82 82 90 101 104 105 102 91 86 94 99 98 97 97 97 95 87 73 59 50 48 48 48 47 47 46 46 46 48 49 51 52 51 50 50 51 51 50 50 50 49 51 55 61 70 80 85 85 80 77 78 78 75 71 70 69 66 64 66 68 71 76 80 83 84 82 80 81 81 79 75 70 66 62 59 57
65 80 96 102 97 95 98 98 96 96 94 93 93 93 98 100 93 92 98 98 92 90 91 89 81 70 60 53 53 54 52 51 49 47 46 46 46 49 51 53 54 52 51 50 50 50 50 51 52 53 55 60 68 78 85 86 83 80 81 82 80 75 73 73 70 67 67 69 70 73 77 82 86 87 85 83 84 85 82 76 72 68 63 60 58
77 87 95 101 100 100 104 105 104 101 95 90 90 94 100 102 101 102 100 91 85 84 82 72 62 57 56 56 57 57 54 52 50 49 48 47 48 52 54 54 55 55 53 50 49 52 56 58 57 58 62 68 76 85 88 85 81 83 86 85 81 78 76 74 70 68 69 72 73 75 79 85 89 89 86 84 84 84 83 79 75 70 65 63 61
88 95 100 105 104 102 105 107 106 104 101 99 99 101 102 102 105 105 96 86 84 80 71 63 58 58 58 60 61 57 53 52 51 51 51 50 51 55 55 55 56 55 53 53 54 56 61 60 57 61 69 77 84 89 88 81 81 87 89 86 83 80 76 72 69 69 73 75 75 76 81 87 90 90 87 84 83 82 83 83 78 71 69 68 65
98 103 104 105 105 104 104 103 101 102 104 105 102 99 99 100 102 103 97 89 82 73 66 64 61 63 70 74 67 57 52 52 52 52 52 52 52 53 54 55 55 54 58 62 60 54 53 55 60 71 83 90 91 89 82 79 84 91 91 87 84 81 74 69 67 71 76 78 76 77 82 87 90 90 87 85 83 81 84 88 81 73 73 74 69
98 98 94 94 98 102 102 101 103 104 105 106 102 99 99 99 101 101 92 80 72 70 69 66 63 71 84 82 66 54 52 52 52 53 53 51 50 51 54 56 55 60 69 73 66 59 62 69 78 89 97 97 91 82 76 79 89 93 91 88 86 81 73 67 66 72 79 81 77 77 82 87 90 90 88 87 85 83 87 90 83 76 78 78 73
88 87 83 82 87 93 94 97 104 106 103 102 103 102 101 99 96 88 77 71 73 74 69 63 66 76 80 69 56 52 52 51 52 53 51 49 49 51 54 57 59 67 77 77 73 75 82 90 97 100 98 92 84 77 76 83 91 94 91 88 85 82 75 67 65 74 82 82 79 77 81 86 88 88 89 89 87 86 89 89 85 84 83 78 74
78 77 76 74 76 78 79 84 94 99 96 94 93 92 89 85 80 75 74 77 77 70 61 59 64 68 63 54 51 51 52 52 53 52 50 50 51 53 58 64 71 76 80 81 85 92 97 99 98 94 87 81 79 78 80 84 90 93 91 87 84 82 76 66 65 73 82 83 81 78 78 81 83 86 90 93 91 90 90 89 90 92 85 77 76
81 79 79 78 76 75 74 76 79 81 81 81 82 81 81 79 77 78 80 78 71 61 55 53 54 53 51 50 51 52 52 53 52 53 55 57 60 63 69 77 83 85 85 89 94 96 95 91 87 82 78 77 77 78 81 84 89 93 91 86 85 83 73 64 64 71 80 85 84 77 72 73 78 83 92 98 97 95 93 91 94 94 85 78 80
96 94 93 90 86 81 77 73 69 69 74 79 83 84 83 81 80 81 78 72 64 55 50 48 49 49 49 51 52 53 54 57 60 65 68 70 73 76 78 82 86 87 89 91 92 89 85 81 78 77 76 74 73 75 82 87 92 94 91 88 87 80 68 63 63 68 78 86 86 77 68 69 74 83 95 103 102 99 97 94 95 93 83 80 86
100 102 100 92 81 71 67 68 74 83 91 94 94 93 91 88 85 81 75 66 57 51 49 50 51 51 52 53 55 58 63 69 75 78 80 79 79 77 76 77 80 80 81 83 83 82 80 77 73 71 70 70 72 79 87 94 98 98 94 93 89 77 67 65 65 67 78 88 86 77 70 71 76 84 96 104 103 102 101 96 93 90 83 83 92
87 86 83 74 64 62 68 79 91 99 102 100 98 95 90 83 77 71 65 59 55 52 53 54 54 56 60 64 68 73 78 82 83 82 80 78 75 72 71 71 72 74 75 75 75 75 74 71 68 67 69 74 80 87 94 101 103 100 95 93 86 73 69 69 66 71 85 91 85 77 73 77 83 89 98 103 102 104 104 95 88 87 84 86 96
73 69 66 61 58 61 71 83 92 95 92 88 83 78 74 71 68 66 63 59 57 58 60 63 68 74 78 81 84 86 85 83 80 78 75 73 70 69 68 68 69 71 71 70 69 68 67 67 67 69 75 82 88 93 98 102 100 93 88 85 79 72 71 69 67 78 93 92 83 78 78 83 89 93 98 102 101 104 104 93 85 88 89 93 100
67 63 62 61 60 63 69 77 83 82 78 74 71 70 72 72 70 67 64 63 66 72 78 84 88 90 91 91 91 89 87 83 79 74 72 70 69 68 67 68 68 69 68 68 67 66 66 67 70 76 84 90 93 96 98 97 92 85 79 77 75 73 69 66 72 89 98 92 86 84 85 90 96 97 99 101 101 104 103 94 90 95 98 100 102
77 72 69 67 66 66 68 70 72 72 72 75 79 81 80 76 74 74 76 80 85 90 93 95 95 95 95 94 92 91 88 82 77 73 70 69 68 67 67 67 67 68 67 66 64 62 64 67 73 82 92 97 99 99 97 93 89 82 75 73 73 70 67 71 85 96 96 93 93 93 91 95 100 101 103 104 103 104 103 99 98 101 101 101 102
91 87 83 79 76 75 74 75 77 82 88 93 97 96 90 85 86 91 94 96 98 99 100 101 101 100 99 96 93 89 84 79 76 73 70 69 68 67 66 65 66 66 64 60 57 58 64 71 78 88 98 103 102 98 94 90 84 75 70 68 66 66 74 89 97 95 92 96 99 97 98 102 103 101 101 103 103 103 103 103 103 102 100 100 101
101 100 98 94 93 94 96 97 97 100 104 105 105 103 99 97 100 104 104 103 102 102 102 102 102 101 99 95 91 85 81 78 75 72 71 70 69 68 66 65 65 65 61 57 56 62 71 78 85 93 101 102 96 88 82 78 72 66 63 60 58 67 88 100 95 89 94 100 100 98 101 105 106 103 100 101 103 102 102 103 103 101 100 100 100
Wind_Speed
13 14 14 15 16 16 17 17 18 19 20 19 19 20 20 18 15 13 9 7 5 4 3 4 4 4 4 4 4 4 4 5 5 5 5 6 7 7 8 7 7 8 9 9 10 10 11 12 14 15 17 18 20 22 22 24 25 26 27 27 28 29 30 31 32 32 32 31 30 29 29 28 29 29 30 31 32 33 33 34 35 36 36 37 37
14 15 15 16 16 17 19 19 19 19 19 19 20 20 19 15 12 8 6 4 3 3 4 4 5 4 3 3 4 5 5 5 5 5 5 6 6 6 6 6 6 6 7 8 9 10 11 12 13 15 16 18 20 22 23 24 25 26 27 28 28 29 31 33 33 34 33 32 31 30 30 29 29 30 30 31 31 32 33 34 35 36 37 37 38
15 16 17 17 17 18 20 19 18 19 19 19 20 20 16 12 8 6 3 2 3 4 4 4 4 3 2 3 4 5 5 4 5 5 6 5 5 5 5 5 4 5 5 7 8 9 10 12 13 14 16 18 20 21 22 23 25 26 28 29 29 30 32 33 34 34 34 33 32 31 30 30 30 30 30 31 31 31 32 33 34 35 36 37 37
15 16 17 17 18 19 19 18 18 18 18 18 19 18 14 9 6 4 2 2 4 4 4 4 4 2 2 4 5 5 4 4 5 5 5 4 4 4 4 4 3 4 5 7 8 9 10 11 12 13 15 17 18 19 21 22 24 25 27 28 29 30 30 31 32 33 34 33 32 32 31 31 31 31 31 32 32 32 32 33 34 35 36 36 37
14 15 14 15 15 16 16 17 18 18 17 18 18 16 12 8 4 2 2 4 4 3 4 4 2 2 4 5 5 4 4 4 5 4 4 4 4 3 3 3 3 4 5 7 8 9 10 11 12 13 15 17 18 19 20 22 23 24 25 26 27 28 29 31 32 34 35 34 34 33 33 33 33 33 33 33 34 34 34 34 35 36 37 37 38
14 12 12 12 13 14 15 16 18 17 16 17 16 14 10 6 3 1 2 3 4 4 4 2 2 3 5 5 4 4 4 4 4 3 3 3 3 2 2 2 3 4 5 6 8 10 11 11 13 14 15 16 18 19 20 22 22 23 24 25 26 27 29 32 33 35 36 36 36 35 35 35 35 35 35 36 36 37 37 37 37 37 38 39 40
13 12 12 13 14 14 15 16 17 16 16 16 14 12 8 4 2 2 2 3 3 4 3 1 1 3 5 5 4 3 3 3 3 2 2 2 2 2 2 3 3 4 5 6 8 10 11 12 13 14 15 17 18 19 21 22 23 23 24 25 26 28 30 32 34 36 38 38 38 37 37 37 37 37 37 38 39 39 39 40 40 39 39 40 42
13 13 13 14 15 15 15 16 16 16 16 15 13 10 6 3 1 1 1 2 4 4 2 0 1 3 5 4 3 3 2 2 2 2 2 2 2 2 3 4 5 5 5 7 9 10 11 11 12 13 15 17 19 20 22 23 24 24 24 26 27 29 31 32 34 37 39 40 39 38 38 37 37 38 38 39 39 39 40 41 42 42 42 42 44
13 13 13 14 15 16 16 17 16 16 16 14 11 8 4 1 0 1 1 2 4 3 1 1 1 4 4 3 2 2 2 2 2 3 3 3 4 4 4 6 6 6 7 8 9 10 10 11 12 13 15 17 20 22 23 25 25 25 26 28 30 31 32 34 36 38 40 41 41 40 39 38 38 39 40 40 40 40 40 41 42 43 44 45 47
14 14 14 15 16 17 17 16 16 15 14 12 10 6 3 1 1 1 1 3 3 2 2 2 2 4 4 3 2 2 1 1 2 3 4 4 5 6 6 7 8 8 8 8 9 10 10 11 12 14 16 19 21 23 25 25 26 27 28 30 31 33 35 37 39 41 43 44 44 43 42 41 41 42 43 44 43 43 43 43 43 43 44 46 48
14 15 15 16 17 17 16 14 13 14 13 11 9 5 3 3 3 2 1 2 2 3 3 3 4 5 5 4 3 1 0 1 3 4 4 5 6 7 7 8 8 8 8 9 9 10 11 11 13 15 18 20 23 25 25 26 27 28 29 31 32 34 37 39 41 43 44 46 46 45 44 43 44 45 46 47 47 47 46 46 46 46 47 48 51
13 14 15 16 17 17 14 11 11 12 12 11 9 5 4 4 3 2 1 1 3 4 5 5 4 5 6 4 3 2 1 1 2 4 5 6 7 8 8 8 8 8 9 9 10 11 12 13 15 17 19 21 24 25 26 27 28 29 29 31 32 34 36 38 40 42 44 45 46 45 45 44 45 46 48 49 50 49 49 50 50 50 50 51 54
13 14 14 16 17 17 13 9 10 11 10 10 9 5 5 6 4 2 1 2 4 5 6 6 5 6 7 5 3 3 2 2 2 4 5 6 8 9 9 9 9 9 9 10 11 12 13 15 17 19 20 23 24 26 27 28 29 29 30 31 32 33 35 37 39 41 43 44 45 45 45 45 45 47 49 51 52 52 52 53 54 54 54 54 56
13 14 14 15 17 16 12 9 10 10 9 9 8 5 6 6 5 2 3 4 5 6 7 7 6 7 7 6 4 4 4 4 3 4 6 7 9 10 11 11 11 10 10 11 12 13 15 16 18 20 22 23 25 27 28 28 29 29 30 32 33 34 35 37 39 41 43 45 46 46 46 46 46 48 51 52 53 54 55 57 58 58 59 59 59
14 15 16 15 15 14 12 10 9 9 8 8 8 6 6 7 5 3 4 5 6 7 7 7 7 7 8 7 6 6 6 5 5 5 7 8 10 11 12 12 12 12 12 13 14 15 17 18 20 21 22 24 26 27 28 29 29 30 31 33 34 35 36 38 40 42 44 45 47 47 47 47 48 50 52 53 54 56 58 60 62 63 65 65 66
16 17 17 16 14 13 13 11 10 9 8 7 8 6 7 8 6 5 5 6 7 8 8 8 8 8 9 9 8 7 7 6 6 7 8 9 11 13 13 13 13 13 13 14 15 17 18 19 21 22 23 24 26 27 28 29 29 30 31 33 34 36 37 39 41 42 44 46 48 48 48 48 49 52 54 55 56 57 59 61 63 64 65 67 69
18 18 18 17 15 13 13 12 11 9 8 7 7 7 7 9 7 6 6 7 7 8 8 8 8 8 10 10 9 8 8 8 8 9 10 11 13 14 15 14 14 15 15 15 16 17 19 20 21 22 23 25 26 27 28 29 29 30 32 33 35 36 37 39 41 43 45 46 48 48 48 48 50 53 55 56 57 58 60 62 63 63 64 66 69
19 19 19 19 17 14 13 12 11 9 8 7 7 7 8 9 8 7 8 8 8 9 8 8 8 8 9 10 10 10 10 9 10 11 13 13 15 16 16 15 16 16 17 17 17 18 19 21 22 23 24 25 26 27 28 29 30 31 33 34 35 36 38 39 41 43 45 47 48 48 48 49 52 54 56 57 58 59 61 62 63 64 65 66 68
20 21 20 20 18 15 14 13 12 10 8 7 7 7 8 9 9 8 9 9 9 9 9 8 8 8 8 8 9 10 10 10 11 13 15 16 16 17 17 17 17 17 18 18 18 19 20 22 23 24 25 25 26 27 28 29 30 31 33 34 36 37 38 40 42 43 45 47 48 48 48 50 54 56 57 58 59 60 62 63 64 64 66 68 69
22 22 20 19 18 16 14 14 12 10 8 8 7 7 8 9 9 9 9 9 10 10 10 9 8 7 7 7 8 9 10 11 13 15 16 17 18 18 18 18 18 19 19 19 20 20 22 23 24 25 25 26 26 27 28 30 31 32 33 35 36 37 38 40 42 44 46 47 47 47 49 52 55 57 58 59 60 62 63 64 64 65 67 69 71
22 22 20 18 18 17 15 14 13 11 10 9 8 8 8 9 9 9 10 10 10 11 11 10 9 8 7 7 7 8 9 11 13 15 17 18 18 18 18 18 19 20 20 21 21 22 22 23 24 25 26 27 27 27 28 30 31 32 34 35 36 38 39 41 43 44 46 47 47 48 50 54 56 58 59 60 61 63 64 64 65 66 68 71 72
21 21 20 18 18 17 16 15 14 13 12 10 8 8 9 9 9 9 9 10 11 12 12 11 10 9 8 8 8 8 9 11 13 15 16 18 18 18 19 19 20 20 21 22 22 22 23 23 24 25 26 27 27 28 29 30 31 32 34 35 37 38 40 42 44 45 47 47 47 49 52 55 57 59 60 62 63 64 65 66 67 68 70 72 73
21 20 20 19 19 18 17 16 15 14 13 12 10 9 10 10 10 10 10 10 11 12 12 11 11 10 10 10 10 10 10 12 13 14 15 16 17 17 18 18 19 20 21 22 22 22 23 24 24 25 26 27 28 28 29 30 31 32 34 36 37 39 41 43 45 46 47 47 48 50 53 56 59 60 62 63 64 65 66 68 69 71 72 73 75
21 21 20 19 18 17 16 15 15 15 15 14 12 11 11 11 11 11 10 10 10 10 11 11 11 11 11 11 11 11 12 13 14 14 15 16 16 17 18 18 19 20 21 21 22 23 23 24 25 25 26 27 28 29 29 30 31 32 34 36 38 40 42 44 46 47 48 48 49 51 55 58 60 62 64 65 66 67 68 69 71 73 74 75 77
22 21 19 18 17 15 15 14 14 15 15 14 12 12 11 11 11 11 11 10 9 9 9 9 10 11 11 11 11 11 12 13 14 15 15 16 17 18 18 19 20 20 21 22 22 23 23 24 24 25 26 27 28 29 29 30 31 33 35 36 39 41 43 45 47 48 48 48 49 52 56 59 61 63 65 66 67 68 70 71 73 74 75 76 80
22 20 18 17 15 13 12 13 13 14 15 13 12 12 11 11 11 11 11 10 9 9 9 9 9 10 11 11 11 11 12 13 14 14 15 16 17 18 19 20 21 21 22 22 23 24 24 24 25 25 26 27 28 29 29 30 31 33 35 37 39 41 43 45 47 48 48 49 50 53 57 60 62 63 65 66 67 68 70 73 74 75 76 78 82
21 19 17 16 15 14 13 13 13 14 14 13 12 12 11 11 10 11 11 10 10 10 10 9 9 10 10 11 11 11 12 13 14 15 16 17 18 19 19 20 21 22 23 23 24 24 24 24 25 26 26 27 28 29 29 30 31 33 35 38 40 42 44 46 47 48 48 50 52 55 58 60 62 64 65 66 67 69 71 73 74 75 77 80 84
20 17 15 14 15 15 14 13 13 14 14 13 12 12 11 10 10 10 11 11 10 10 10 9 8 9 10 11 11 12 13 14 15 16 17 18 19 20 21 22 23 24 24 24 24 24 25 25 25 26 27 28 29 29 29 30 32 34 36 38 40 42 44 46 47 48 50 52 54 56 58 60 62 64 65 66 67 69 71 73 74 75 78 82 86
18 16 13 14 16 16 14 14 15 15 13 13 12 12 11 10 10 11 11 10 10 10 10 8 7 9 10 12 12 13 14 15 17 17 18 19 20 21 22 23 23 24 25 25 25 25 25 25 26 27 27 28 29 29 30 31 32 34 36 38 40 42 44 46 47 49 51 53 56 57 59 61 62 64 65 66 67 69 71 72 73 75 79 83 87
17 14 13 14 17 16 14 14 15 14 13 13 12 12 11 11 11 12 12 11 10 10 10 8 9 11 12 13 14 15 16 17 18 19 19 20 20 21 22 23 24 24 24 25 25 25 25 26 27 27 28 28 29 30 30 31 33 35 37 38 41 43 44 46 47 50 52 54 57 58 59 61 62 64 64 66 67 68 69 70 72 76 80 84 87
16 14 13 15 17 16 13 14 15 14 13 12 12 12 12 12 13 13 13 12 11 11 10 10 11 13 14 15 16 17 18 19 20 20 20 20 21 22 23 23 24 24 25 25 26 26 26 26 27 28 28 29 29 30 31 32 34 35 37 39 41 43 44 46 49 51 53 56 57 58 59 61 62 63 64 66 67 67 68 69 72 76 80 84 86
15 14 14 16 17 15 13 14 15 15 13 12 13 13 12 13 14 15 14 13 12 12 11 12 13 15 16 17 18 19 20 21 21 21 21 21 21 22 23 24 25 25 26 26 26 26 26 26 27 28 28 29 29 30 31 33 35 36 37 39 41 42 44 47 50 52 55 57 58 59 60 61 62 64 65 66 67 68 68 70 73 77 81 84 87
14 14 15 16 17 15 14 15 16 15 14 14 13 13 14 15 16 16 15 14 14 13 13 14 15 16 18 19 20 21 22 22 23 23 23 22 22 23 24 24 25 25 26 26 26 26 26 26 26 27 28 28 29 31 32 34 35 36 38 39 40 42 45 48 51 53 56 59 60 60 61 62 63 64 66 67 68 68 70 72 74 78 82 85 88
14 15 15 16 17 15 14 15 15 15 14 14 13 14 15 17 17 17 16 15 15 15 15 16 17 18 20 21 22 23 24 24 24 24 24 23 23 23 24 24 24 25 25 25 25 25 25 25 26 26 27 29 29 31 33 34 36 37 38 39 41 43 46 48 51 54 58 60 61 62 62 63 64 66 67 68 68 69 71 73 76 79 83 86 89
15 15 15 16 16 15 14 14 14 14 14 14 14 15 16 17 18 17 16 16 16 16 17 17 18 20 22 24 24 25 25 25 25 25 25 25 24 24 24 24 24 25 25 24 24 24 24 25 25 26 27 29 30 32 33 35 36 38 38 39 41 44 46 48 52 55 59 62 63 64 64 65 65 67 68 68 69 71 73 75 77 80 83 86 89
15 16 15 16 16 16 15 15 15 15 15 15 15 16 17 18 18 18 18 18 18 18 18 19 20 22 24 25 25 26 26 26 27 26 26 26 25 25 25 24 24 25 25 23 23 23 24 24 24 26 27 29 31 33 34 36 37 38 38 40 43 44 46 49 52 56 60 63 64 65 65 66 67 68 69 69 70 72 74 76 78 81 85 88 90
16 16 16 16 17 17 17 16 16 16 16 16 16 16 17 18 19 19 20 20 20 19 20 20 21 23 25 26 26 26 26 27 28 28 28 27 26 25 25 24 24 25 25 24 23 24 24 24 24 26 27 30 32 33 35 36 37 38 39 41 43 45 47 50 53 56 60 63 65 66 67 67 68 69 70 70 71 72 74 77 79 82 86 89 91
17 17 17 18 18 18 18 17 17 16 16 16 16 16 18 20 20 21 22 22 21 22 22 23 23 25 27 27 27 27 27 27 28 28 28 28 25 24 24 24 23 24 24 24 24 24 24 24 25 27 29 31 33 35 36 37 37 38 40 43 44 45 48 51 53 56 60 63 66 67 68 69 69 70 71 72 73 73 75 77 80 83 86 89 91
18 18 19 19 19 19 19 18 17 17 17 17 16 17 19 21 22 23 23 23 23 24 24 25 25 26 26 26 27 28 28 28 28 27 27 26 24 22 22 23 23 23 23 25 26 25 25 25 26 29 31 33 35 36 37 38 38 39 42 44 45 47 49 52 54 56 60 63 66 68 69 70 70 71 72 73 74 74 75 77 80 83 86 89 91
21 20 20 20 20 20 19 18 17 18 20 19 19 20 22 23 23 23 24 25 25 26 26 26 26 26 24 26 28 29 28 27 27 26 25 24 23 21 21 22 22 22 25 27 28 28 27 28 29 31 33 35 37 38 38 38 39 41 44 45 47 48 51 53 55 57 60 63 66 68 70 71 72 73 74 74 75 75 76 78 81 84 86 88 91
22 21 21 21 21 20 20 19 19 20 22 21 22 23 25 25 24 24 26 27 27 27 27 27 27 27 26 27 28 27 27 26 25 25 24 22 21 21 21 21 21 23 27 28 28 28 29 30 31 33 35 37 38 39 39 40 41 43 46 47 49 50 52 55 56 58 60 63 66 68 70 72 74 75 76 76 76 76 76 78 81 84 86 88 91
21 21 21 21 21 22 22 21 21 23 23 23 24 24 25 26 27 27 28 28 28 28 28 28 28 28 27 27 26 25 25 24 23 23 22 22 21 21 21 21 22 24 27 28 27 29 30 31 33 35 37 38 39 40 41 41 43 45 47 49 50 52 54 56 57 58 60 63 66 68 70 72 75 77 78 78 78 77 77 78 80 83 86 89 91
21 21 21 21 22 22 22 22 23 23 24 24 25 25 26 27 28 28 28 28 29 29 30 29 29 27 26 24 24 23 23 23 22 23 22 22 22 22 22 23 23 25 28 29 29 31 32 34 36 37 38 40 41 42 43 44 45 47 49 51 52 53 55 57 57 58 60 64 66 68 70 72 75 78 80 80 80 79 78 78 80 83 86 90 92
23 23 23 23 23 23 24 24 23 23 24 24 25 26 27 28 28 28 29 30 30 31 30 29 27 25 23 22 22 22 22 22 22 23 23 24 25 25 25 26 26 28 30 31 32 34 35 37 38 39 40 42 43 44 45 46 47 49 51 53 53 54 56 58 59 60 62 65 67 69 71 73 76 79 81 82 82 80 79 79 80 82 86 89 92
25 25 25 26 26 26 26 26 25 25 26 26 27 27 28 29 30 30 31 31 31 31 29 27 25 23 22 22 21 22 22 23 24 24 25 26 27 28 28 29 29 31 32 33 35 36 37 39 40 41 43 44 45 46 47 48 49 51 54 55 55 56 58 59 60 62 64 67 69 70 72 75 78 80 82 84 83 81 79 78 79 81 85 88 90
27 27 28 28 28 28 28 27 27 27 27 28 29 29 30 31 32 32 32 31 29 27 25 24 23 22 22 23 23 24 24 25 26 27 28 29 29 30 31 31 32 33 34 36 37 38 40 41 43 44 45 46 47 48 48 50 51 53 55 56 57 58 59 60 62 64 67 69 71 72 74 77 80 82 83 84 83 81 79 78 78 80 84 86 88
28 28 29 29 29 29 29 29 29 29 29 30 31 31 32 32 31 30 29 27 25 24 23 23 23 23 24 25 25 26 27 28 29 30 31 31 32 32 33 34 35 36 37 38 39 41 42 44 45 46 47 48 48 50 51 52 53 55 56 57 59 60 61 62 63 66 69 71 72 73 75 78 81 82 84 84 82 82 82 81 79 80 83 85 86
28 29 30 30 31 31 30 30 31 31 32 32 32 31 31 29 28 26 25 24 24 23 24 24 25 25 26 27 28 29 30 31 32 33 33 34 35 35 36 37 38 39 40 41 43 44 45 46 47 48 48 49 50 52 54 54 55 56 57 59 61 62 63 63 65 68 71 73 74 75 77 79 81 83 85 85 83 84 85 83 81 81 83 84 85
28 29 30 31 32 32 32 32 32 32 32 31 31 30 28 27 26 25 24 24 24 25 25 26 27 27 28 29 30 32 33 34 35 36 36 37 38 39 39 40 42 43 44 45 46 47 48 49 49 49 50 51 52 54 56 57 57 58 59 60 61 63 64 65 67 69 71 73 75 77 79 80 82 84 86 86 86 87 86 83 81 81 82 83 85
29 29 30 31 32 32 32 32 32 32 31 30 29 29 28 27 26 26 26 26 26 27 28 28 29 30 31 32 33 34 36 36 37 38 39 40 41 42 43 44 45 47 48 49 50 50 50 50 50 50 51 53 55 56 57 58 59 60 60 61 62 64 65 67 68 70 72 74 76 78 81 82 82 83 85 87 88 88 86 82 80 80 80 81 83
30 30 31 31 31 31 31 31 31 31 30 30 30 30 29 28 27 27 28 28 29 29 30 31 32 33 34 35 36 37 38 39 40 41 42 43 45 46 46 47 49 50 51 51 51 51 51 51 52 53 55 57 58 59 59 60 61 62 62 62 63 64 65 67 69 70 73 76 78 80 82 84 84 84 85 87 88 88 84 81 79 79 80 81 82
Wind_Direction
306 311 314 315 317 322 327 328 330 333 334 331 328 327 324 321 318 316 318 323 332 4 60 88 93 95 92 78 68 80 93 88 75 75 78 78 82 88 91 93 91 86 78 65 56 52 51 48 43 39 36 33 29 28 28 28 26 24 22 20 18 17 15 13 12 10 9 8 7 6 4 3 1 359 359 357 355 353 351 350 348 347 346 345 343
302 308 312 314 315 320 325 327 329 331 331 331 329 329 327 324 322 317 318 333 12 79 101 100 99 99 89 74 85 99 99 84 81 88 85 80 83 86 90 91 88 83 73 58 50 49 45 41 36 34 34 31 28 26 26 24 22 20 19 18 16 14 12 11 9 8 7 6 5 4 3 1 360 359 357 356 354 352 350 349 347 346 345 344 342
301 305 308 310 312 317 322 324 325 329 331 331 330 330 331 330 325 317 324 10 83 106 109 106 106 100 85 96 107 106 95 88 92 92 87 85 85 84 87 88 87 82 67 54 50 46 39 33 32 32 30 28 27 25 24 21 19 16 15 14 13 12 10 8 7 5 4 4 3 3 2 0 359 358 356 355 353 351 349 348 346 345 344 343 341
306 305 305 306 309 313 318 319 323 329 332 331 332 333 334 337 327 320 1 90 115 117 115 116 112 100 109 119 116 107 94 91 90 87 88 90 87 84 82 81 78 67 56 52 49 40 31 27 28 29 26 24 23 21 19 17 16 14 12 11 10 9 7 6 4 3 2 2 2 2 1 1 359 357 356 354 353 351 349 347 346 345 344 342 341
315 314 311 309 310 314 318 321 325 329 331 332 334 334 336 339 331 335 74 118 126 124 125 123 115 117 130 129 120 106 92 81 78 82 91 92 89 81 70 61 53 49 51 49 41 29 22 22 23 23 20 18 16 14 12 11 11 10 9 7 6 5 4 3 3 2 1 0 0 0 0 360 359 357 356 354 353 351 349 348 346 344 343 342 341
322 323 325 324 322 323 324 327 329 330 332 334 334 334 334 339 350 58 118 132 128 132 140 138 130 134 138 136 123 102 83 71 67 77 89 91 91 77 56 39 37 43 46 39 27 18 15 16 16 15 12 10 8 7 5 4 4 4 4 3 1 2 2 2 2 1 1 0 359 359 359 358 358 357 356 355 354 352 350 348 346 345 344 343 342
322 323 326 327 327 328 330 332 334 334 335 334 334 334 335 350 40 122 141 133 133 149 164 169 134 141 148 143 120 95 79 65 60 69 81 92 85 50 20 19 30 32 28 19 11 7 7 8 8 7 5 3 2 1 359 358 357 359 359 358 358 359 1 1 1 0 0 360 359 358 358 357 357 357 356 355 353 352 350 348 346 344 343 342 342
320 322 322 322 324 327 330 335 339 339 337 335 334 335 339 13 80 154 143 131 153 172 192 221 141 158 159 144 117 103 87 67 62 66 66 57 30 3 357 10 12 8 3 359 355 354 357 358 359 359 359 359 358 357 356 354 354 355 355 355 356 357 359 359 359 360 0 360 359 358 357 357 356 355 354 352 351 351 350 349 346 344 343 342 342
316 319 319 319 319 322 326 332 339 340 337 335 335 333 338 21 138 213 143 159 177 190 234 303 205 181 169 147 134 131 92 64 64 55 37 18 2 349 356 2 354 347 343 339 338 340 343 347 349 353 356 357 357 356 355 353 352 352 352 353 354 356 357 358 358 359 359 359 358 357 356 355 354 352 350 349 348 347 347 346 345 343 342 342 343
309 313 316 317 316 316 318 326 336 339 336 336 334 328 320 285 265 254 190 185 191 215 276 292 234 197 180 171 170 153 80 44 49 34 13 0 353 349 352 349 338 330 326 320 321 327 333 338 344 351 356 357 356 355 353 351 351 351 352 352 353 355 356 357 357 358 358 358 357 356 354 353 351 349 348 347 346 345 344 344 344 343 342 342 342
307 311 317 322 320 317 317 323 334 338 336 335 333 320 288 267 266 256 201 188 207 250 282 285 245 208 192 191 189 175 322 359 27 12 351 349 347 342 340 333 323 315 308 307 313 321 328 334 344 353 356 356 354 353 352 351 351 351 351 351 352 354 355 356 356 356 356 356 355 354 353 351 349 348 348 347 346 345 344 343 343 343 343 343 343
307 312 320 327 327 324 323 328 337 338 335 335 332 313 272 264 266 270 245 217 241 261 281 286 259 221 207 204 203 214 268 324 4 349 337 341 336 329 325 317 308 302 300 306 314 321 328 336 347 353 355 354 352 351 350 350 350 350 349 349 351 353 354 354 354 354 354 355 354 353 351 349 347 347 347 346 345 344 344 344 344 344 344 345 345
308 314 322 328 333 333 330 335 342 339 333 334 331 305 266 263 268 292 318 274 256 263 280 287 270 235 220 215 215 232 262 287 321 332 329 329 322 316 312 304 298 298 303 310 319 325 331 339 348 352 353 352 350 349 349 349 348 348 347 347 348 350 352 352 352 352 352 353 353 351 349 347 346 346 345 345 345 345 345 345 345 345 345 346 346
310 316 321 326 335 339 336 336 340 337 331 331 328 302 265 265 270 291 301 275 261 264 277 285 275 248 231 224 225 236 252 267 291 315 317 315 313 307 302 299 299 302 308 316 323 328 334 341 347 349 349 349 348 347 347 347 346 345 344 344 346 347 349 350 350 350 351 351 351 350 349 347 346 345 345 345 345 345 345 346 346 346 346 346 347
308 313 318 323 332 338 338 335 335 334 329 327 326 302 267 266 270 277 281 272 265 266 273 281 278 259 240 231 231 239 250 264 281 297 303 305 304 300 297 299 302 305 311 319 324 329 335 341 344 345 346 346 346 346 345 344 344 343 342 342 343 345 346 348 348 349 349 350 350 349 348 347 346 346 345 345 346 346 347 347 347 347 347 346 347
304 308 313 318 325 330 332 332 330 329 325 322 321 302 270 265 267 268 272 271 268 267 270 277 278 262 245 238 239 245 253 263 277 287 292 297 297 295 294 298 302 306 312 319 324 330 336 339 341 342 343 344 345 345 343 342 341 341 341 341 341 343 344 346 347 347 348 348 348 348 347 347 346 346 346 346 346 346 347 347 347 347 347 346 347
303 308 311 315 318 319 321 324 323 321 316 310 313 299 271 263 264 265 269 270 270 267 267 272 272 261 247 242 243 249 254 262 272 281 285 289 291 291 292 297 303 307 312 318 324 331 336 337 338 340 341 343 345 344 342 340 339 339 339 340 340 342 343 344 345 345 346 347 347 347 347 347 346 346 346 346 346 346 346 347 346 346 346 346 346
301 307 309 309 312 313 311 314 315 310 301 293 297 293 272 262 262 264 267 271 272 270 266 266 266 261 253 246 246 251 257 263 272 278 281 284 286 288 291 297 302 306 311 317 324 330 333 333 334 336 338 340 342 342 341 339 338 337 338 339 340 341 341 342 343 344 345 346 346 346 346 346 346 346 346 346 345 345 346 346 346 345 345 346 346
296 301 304 302 303 305 305 308 309 301 287 278 280 282 271 262 260 262 264 270 273 272 269 265 265 266 263 256 253 256 262 267 273 277 279 282 284 287 292 297 302 306 310 315 322 326 328 329 330 331 333 336 338 339 338 337 337 336 337 338 339 340 340 341 342 343 344 345 345 345 345 345 345 345 345 345 345 345 345 345 345 345 345 345 345
294 297 300 298 295 295 296 301 304 294 274 267 270 272 269 262 260 261 263 267 272 273 271 267 266 270 272 270 267 268 270 272 273 275 277 280 283 287 292 297 302 305 310 315 319 322 324 325 326 328 329 331 333 335 335 335 335 335 336 337 338 339 339 340 341 342 344 344 345 345 345 345 345 344 344 345 345 344 344 344 344 345 345 345 346
294 296 297 296 292 288 285 290 297 289 266 259 261 262 264 262 260 262 263 267 271 273 272 270 270 272 275 278 278 277 277 276 275 276 277 279 283 287 292 297 302 306 310 314 317 319 320 322 323 325 326 328 330 332 333 334 334 334 335 336 337 338 338 339 340 342 343 344 344 344 344 344 344 344 344 344 344 344 343 343 344 345 346 346 346
293 295 295 293 289 285 279 280 288 284 265 254 253 254 256 259 260 262 266 270 273 274 273 272 272 273 274 277 279 280 282 281 279 279 279 281 284 288 292 298 303 307 310 313 315 316 317 318 320 322 324 325 327 329 331 332 333 333 334 335 336 337 338 339 340 341 342 343 343 344 344 344 344 344 344 344 344 343 343 343 344 345 346 346 347
291 293 291 288 285 281 276 273 279 279 265 252 249 250 252 254 256 261 266 272 276 275 274 273 272 273 273 275 278 280 281 282 283 283 285 287 290 293 297 301 305 307 309 311 311 313 314 316 318 320 322 324 325 327 329 330 332 332 333 335 335 336 337 338 339 341 342 342 343 343 344 344 344 343 343 343 343 343 343 344 344 345 346 347 347
290 290 287 285 283 277 270 267 272 274 263 253 250 251 251 251 252 256 263 272 276 273 270 270 270 272 272 273 276 279 282 284 286 289 292 296 298 301 302 304 306 307 308 309 309 310 312 314 316 318 321 323 324 326 327 329 331 332 333 334 335 335 337 338 339 340 341 342 342 343 344 344 344 343 343 343 343 343 343 344 344 345 346 346 346
289 288 284 282 278 269 263 264 267 265 257 250 248 248 249 251 252 255 260 269 272 270 267 267 269 271 272 274 277 281 285 288 291 294 297 300 301 302 303 305 306 306 306 307 307 309 310 312 314 317 320 322 323 325 327 329 331 332 333 334 334 335 336 337 339 339 340 341 342 343 344 344 343 343 343 343 343 343 343 343 344 345 346 346 346
286 282 280 278 272 263 259 260 259 254 249 247 245 245 248 252 254 256 261 266 269 269 269 268 270 274 277 279 283 288 292 295 297 299 300 301 301 302 304 304 304 304 304 304 305 306 308 310 313 316 318 321 323 325 327 329 330 331 332 333 333 334 336 337 338 339 340 341 342 343 343 344 343 343 343 343 343 343 343 343 344 345 346 346 346
278 275 275 272 265 258 255 253 247 241 241 243 242 244 249 253 255 257 261 265 269 272 273 273 276 281 285 288 292 296 298 299 300 301 302 303 303 304 304 304 303 302 302 302 303 304 306 308 312 315 317 320 323 325 327 328 329 330 331 332 332 334 336 337 338 339 340 341 342 342 343 343 343 343 342 343 343 343 343 343 344 345 346 346 346
269 270 269 264 260 254 247 240 233 230 235 240 241 243 248 253 255 257 261 265 269 274 274 274 280 288 292 295 297 298 299 301 302 303 304 304 304 305 305 304 303 302 302 302 302 303 305 308 311 313 316 319 322 325 326 327 328 329 330 331 332 334 336 337 338 339 340 341 342 342 343 343 343 343 342 342 342 342 342 343 344 345 345 346 346
264 266 261 254 253 247 233 225 223 224 230 236 238 242 247 252 254 255 258 263 269 272 271 273 285 296 299 299 300 301 302 304 305 305 305 305 306 306 306 304 304 304 304 304 304 304 305 307 309 312 315 318 321 324 325 326 327 329 330 331 332 334 336 337 339 340 341 342 342 342 343 343 343 342 342 342 342 342 342 343 344 345 345 346 347
262 259 249 244 246 240 226 221 223 222 225 230 234 239 246 252 253 254 256 261 267 268 269 276 290 299 301 301 302 304 306 307 307 307 307 307 308 308 307 307 307 307 307 307 306 306 307 307 308 310 313 317 320 322 324 325 327 328 329 331 333 334 336 338 340 341 342 342 342 343 343 343 342 342 342 341 342 342 342 343 344 345 346 346 347
258 251 242 240 242 239 229 224 223 219 218 223 230 237 245 252 253 254 257 261 264 267 273 286 296 301 302 302 303 305 307 308 308 308 308 308 308 308 309 309 309 310 309 309 309 309 308 308 308 309 312 315 319 321 323 325 326 327 329 331 333 335 337 339 341 341 342 342 343 343 342 342 342 341 341 341 341 341 342 343 344 345 346 347 348
253 247 239 235 236 233 224 220 218 214 213 220 228 237 246 252 253 255 257 261 263 268 279 291 299 303 303 303 304 306 307 308 308 308 308 307 308 309 311 312 311 310 310 310 310 309 309 308 307 308 311 314 318 321 323 324 325 327 329 331 334 336 338 340 341 341 342 343 343 343 342 342 341 341 340 341 341 342 342 344 344 345 346 347 347
248 242 232 227 230 228 218 216 217 215 216 221 229 238 245 250 253 255 258 262 266 271 282 291 297 300 301 302 304 307 309 310 309 309 308 308 309 312 314 314 312 310 310 309 309 309 308 307 307 308 310 314 318 320 322 323 324 326 329 331 334 337 339 340 341 341 343 344 344 343 343 342 341 341 341 341 341 342 343 344 344 345 346 347 347
243 233 224 223 229 229 220 218 220 221 223 227 233 241 248 252 254 255 258 263 269 276 285 291 295 297 298 301 305 308 310 310 310 310 310 309 311 314 314 313 311 309 307 307 308 307 307 307 307 308 312 316 319 320 321 322 323 325 329 332 335 337 339 340 341 342 344 344 344 344 343 342 342 341 341 341 341 342 342 343 344 344 346 347 347
235 223 217 221 228 228 222 221 224 229 234 237 240 246 251 255 256 257 260 266 272 279 286 290 293 296 298 302 306 308 310 310 310 310 310 310 312 314 313 311 309 306 304 304 305 306 306 307 308 311 315 317 319 319 319 320 322 325 329 332 335 337 338 340 341 343 344 345 345 345 343 343 342 341 341 341 341 341 342 342 343 344 345 347 348
227 217 214 220 226 226 224 225 229 235 240 243 244 247 253 257 259 261 265 270 275 280 284 288 293 296 299 302 305 307 308 309 309 310 310 311 313 313 311 309 307 304 303 303 303 304 305 307 310 314 317 318 318 317 317 319 321 325 328 331 333 335 337 339 341 343 345 346 346 345 344 343 342 342 341 341 341 341 341 342 343 344 345 346 347
222 216 216 220 226 227 228 231 235 239 243 247 248 251 255 258 260 264 268 272 277 281 286 291 294 296 298 301 303 305 306 307 308 310 310 311 313 312 310 308 305 304 305 307 308 308 308 308 310 314 317 317 316 315 316 318 321 324 327 329 331 333 335 337 340 343 345 346 346 345 344 343 343 342 341 341 341 341 341 341 342 343 345 346 347
222 219 219 221 226 228 230 234 238 241 244 247 252 258 261 262 263 267 271 275 280 284 289 293 296 298 299 300 302 304 306 306 307 308 309 310 312 310 307 306 305 305 307 311 313 314 313 310 310 314 316 314 313 313 315 317 320 323 325 327 329 330 333 336 339 342 345 346 346 346 345 344 343 342 341 341 341 341 340 341 342 343 344 345 346
223 221 221 222 225 227 230 234 238 241 243 244 244 245 251 259 266 270 274 278 282 286 290 293 296 298 296 296 300 304 305 305 306 306 306 307 308 308 306 306 307 309 311 314 315 316 316 314 314 314 313 311 311 312 313 315 318 321 323 324 325 327 330 334 338 341 343 344 345 346 346 345 344 342 341 341 340 340 340 340 341 342 344 345 346
225 224 225 226 227 230 233 236 240 243 244 242 239 236 243 255 265 270 275 279 282 284 288 292 294 294 291 292 298 302 303 303 304 304 304 304 306 308 308 308 310 311 312 313 314 315 315 315 314 312 309 309 309 310 312 314 317 319 320 321 322 324 328 332 336 339 341 342 343 345 346 346 345 343 342 341 340 340 340 339 340 342 344 344 344
228 229 230 230 231 233 234 234 236 240 241 241 240 241 246 253 260 267 273 277 280 283 287 290 292 292 293 295 298 300 300 301 301 300 301 303 307 310 310 309 310 309 309 309 309 310 311 310 309 307 306 306 307 309 311 313 316 317 318 319 320 322 326 330 334 337 339 340 342 343 344 345 345 344 343 342 340 340 339 339 340 341 343 343 343
232 233 234 235 234 234 234 232 233 237 241 243 245 248 253 257 263 268 272 276 279 284 287 289 291 293 295 297 298 298 297 298 297 298 301 305 308 309 309 308 306 304 304 304 305 305 305 305 304 303 304 305 306 308 310 313 315 316 316 317 319 321 324 328 332 335 337 338 340 341 343 344 344 345 344 342 341 339 339 339 340 340 341 342 342
239 240 240 240 240 240 239 238 238 241 246 250 254 258 261 265 269 272 275 278 283 286 288 290 292 294 295 295 295 295 295 295 297 300 303 305 306 306 306 305 304 302 302 302 302 302 302 301 302 302 303 305 306 308 310 312 314 314 315 316 318 320 323 327 329 332 334 335 337 339 340 342 343 344 344 343 341 339 338 339 339 340 340 341 342
244 246 247 249 250 250 250 250 252 254 257 260 263 266 269 272 275 277 279 282 285 287 289 291 293 293 293 293 292 292 293 295 298 300 301 301 302 302 302 303 303 301 300 300 300 300 300 301 301 302 304 306 307 309 311 312 313 313 314 315 317 320 323 325 327 329 331 333 334 336 338 340 341 342 343 342 341 339 338 338 338 338 339 341 341
246 248 251 254 256 257 258 259 261 263 265 268 270 273 275 277 279 280 281 283 285 288 290 291 291 291 290 290 290 291 293 295 295 296 296 297 298 300 301 301 301 300 299 299 299 299 299 300 302 303 304 306 308 309 310 311 312 313 314 315 317 319 322 325 326 327 329 330 332 334 336 339 340 340 341 341 340 338 337 337 337 337 338 340 341
249 250 252 254 256 258 259 261 263 265 267 269 272 274 276 278 279 281 282 283 285 287 288 288 288 289 290 291 292 292 292 292 293 293 295 296 298 299 300 301 301 300 300 299 299 299 299 301 302 304 305 307 308 309 310 311 312 313 314 315 316 319 321 323 324 326 327 328 330 333 336 337 338 339 339 339 338 337 335 335 335 336 338 340 341
251 253 254 255 257 258 260 262 264 266 268 270 272 273 275 277 278 279 279 281 283 284 285 287 288 289 290 290 290 290 291 292 293 295 296 297 298 298 298 299 299 298 298 298 298 299 300 301 303 304 305 307 308 308 309 310 311 313 314 315 316 318 320 322 323 325 325 326 329 333 335 335 336 336 337 337 336 335 333 333 334 336 338 341 341
253 255 257 258 259 260 261 262 265 267 269 271 272 273 274 275 275 276 277 279 281 282 283 284 285 286 287 287 288 290 292 293 295 296 296 296 296 296 296 297 297 297 297 298 298 299 300 301 303 304 305 306 307 308 309 310 311 313 314 315 316 317 319 321 322 323 324 326 329 332 333 333 333 334 335 335 335 334 333 333 334 336 339 340 340
257 257 257 258 260 261 262 262 264 266 268 269 271 272 273 273 274 275 276 277 278 279 281 282 284 285 287 289 290 291 292 293 294 294 294 294 295 295 296 296 296 297 297 298 298 299 301 302 303 304 305 306 307 307 308 309 310 311 313 314 315 317 318 320 320 321 323 327 329 330 330 331 332 333 334 333 333 332 332 332 334 336 339 339 338
262 261 261 260 260 261 261 262 263 264 265 266 267 268 270 271 273 274 275 277 279 280 281 282 284 286 287 288 289 289 290 291 291 292 293 293 294 294 295 296 296 296 296 297 298 300 301 302 303 304 305 306 306 306 307 307 308 310 311 313 314 316 317 317 318 320 324 327 327 328 328 328 330 332 332 330 330 331 331 331 333 335 336 336 336
263 262 261 260 260 260 260 261 261 261 262 262 264 265 267 269 270 272 274 277 278 279 279 280 281 282 283 284 285 286 287 288 289 291 292 293 293 293 294 294 295 295 296 298 300 302 302 302 302 303 304 304 304 305 305 306 307 309 310 311 313 314 314 314 316 321 324 325 325 325 326 326 328 329 329 328 329 329 330 330 331 333 333 334 333